| time (UTC) | temp F | wind direction | speed MPH | gust MPH | rain 1hr in | rain 24hr in | rain mn in | humidity % | barometer mb |
| 20260506050146 | 42 | 301 | 6.0 | 8.0 | 0.00 | 0.00 | 0.00 | 65 | 1009.1 |
| 20260506044637 | 42 | 314 | 3.0 | 5.0 | 0.00 | 0.00 | 0.00 | 65 | 1008.8 |
| 20260506044134 | 42 | 344 | 3.0 | 3.0 | 0.00 | 0.00 | 0.00 | 65 | 1008.7 |
| 20260506043631 | 42 | 305 | 5.0 | 6.0 | 0.00 | 0.00 | 0.00 | 65 | 1008.8 |
| 20260506043129 | 42 | 331 | 4.0 | 7.0 | 0.00 | 0.00 | 0.00 | 65 | 1008.6 |
| 20260506042628 | 42 | 62 | 6.0 | 8.0 | 0.00 | 0.00 | 0.00 | 65 | 1008.7 |
| 20260506042125 | 42 | 341 | 5.0 | 6.0 | 0.00 | 0.00 | 0.00 | 64 | 1008.7 |
| 20260506041624 | 42 | 343 | 5.0 | 6.0 | 0.00 | 0.00 | 0.00 | 64 | 1008.6 |
| 20260506041120 | 42 | 346 | 5.0 | 7.0 | 0.00 | 0.00 | 0.00 | 64 | 1008.8 |
| 20260506040618 | 42 | 339 | 5.0 | 6.0 | 0.00 | 0.00 | 0.00 | 63 | 1008.8 |
| 20260506040115 | 42 | 346 | 3.0 | 5.0 | 0.00 | 0.00 | 0.00 | 62 | 1008.7 |
| 20260506035611 | 42 | 320 | 3.0 | 5.0 | 0.00 | 0.00 | 0.00 | 62 | 1008.7 |
| 20260506035108 | 42 | 319 | 4.0 | 6.0 | 0.00 | 0.00 | 0.00 | 60 | 1008.6 |
| 20260506034605 | 43 | 303 | 3.0 | 5.0 | 0.00 | 0.00 | 0.00 | 59 | 1008.4 |
| 20260506034102 | 42 | 328 | 3.0 | 6.0 | 0.00 | 0.00 | 0.00 | 58 | 1008.6 |
| 20260506033559 | 43 | 328 | 1.0 | 1.0 | 0.00 | 0.00 | 0.00 | 59 | 1008.5 |
| 20260506033056 | 43 | 344 | 3.0 | 5.0 | 0.00 | 0.00 | 0.00 | 60 | 1008.5 |
| 20260506032554 | 42 | 351 | 3.0 | 5.0 | 0.00 | 0.00 | 0.00 | 61 | 1008.6 |
| 20260506032050 | 42 | 334 | 5.0 | 8.0 | 0.00 | 0.00 | 0.00 | 62 | 1008.6 |
| 20260506031548 | 42 | 326 | 7.0 | 10.0 | 0.00 | 0.00 | 0.00 | 62 | 1008.8 |
| 20260506031044 | 42 | 306 | 2.0 | 8.0 | 0.00 | 0.00 | 0.00 | 62 | 1008.6 |
| 20260506030543 | 42 | 344 | 5.0 | 7.0 | 0.00 | 0.00 | 0.00 | 62 | 1008.7 |
| 20260506030040 | 42 | 335 | 3.0 | 3.0 | 0.00 | 0.00 | 0.00 | 62 | 1008.4 |
| 20260506025537 | 42 | 336 | 1.0 | 2.0 | 0.00 | 0.00 | 0.00 | 63 | 1008.6 |
| 20260506025033 | 43 | 344 | 3.0 | 5.0 | 0.00 | 0.00 | 0.00 | 61 | 1008.5 |
| 20260506024530 | 43 | 315 | 6.0 | 8.0 | 0.00 | 0.00 | 0.00 | 61 | 1008.6 |
| 20260506024026 | 42 | 359 | 5.0 | 7.0 | 0.00 | 0.00 | 0.00 | 61 | 1008.5 |
| 20260506023522 | 42 | 349 | 5.0 | 7.0 | 0.00 | 0.00 | 0.00 | 65 | 1008.5 |
| 20260506023020 | 42 | 332 | 6.0 | 8.0 | 0.00 | 0.00 | 0.00 | 64 | 1008.6 |
| 20260506022517 | 42 | 337 | 4.0 | 6.0 | 0.00 | 0.00 | 0.00 | 64 | 1008.6 |
| 20260506022015 | 42 | 321 | 5.0 | 7.0 | 0.00 | 0.00 | 0.00 | 63 | 1008.7 |
| 20260506021512 | 42 | 358 | 4.0 | 5.0 | 0.00 | 0.00 | 0.00 | 62 | 1008.6 |
| 20260506021009 | 42 | 327 | 3.0 | 3.0 | 0.00 | 0.00 | 0.00 | 62 | 1008.8 |
| 20260506020507 | 42 | 353 | 3.0 | 3.0 | 0.00 | 0.00 | 0.00 | 61 | 1008.8 |
| 20260506020004 | 42 | 332 | 2.0 | 2.0 | 0.00 | 0.00 | 0.00 | 62 | 1009.1 |
| 20260506015501 | 42 | 313 | 3.0 | 5.0 | 0.00 | 0.00 | 0.00 | 63 | 1008.8 |
| 20260506014958 | 42 | 318 | 3.0 | 3.0 | 0.00 | 0.00 | 0.00 | 63 | 1009.1 |
| 20260506014455 | 42 | 311 | 2.0 | 3.0 | 0.00 | 0.00 | 0.00 | 63 | 1009.0 |
| 20260506013951 | 42 | 337 | 2.0 | 3.0 | 0.00 | 0.00 | 0.00 | 63 | 1009.0 |
| 20260506013449 | 42 | 351 | 5.0 | 7.0 | 0.00 | 0.00 | 0.00 | 63 | 1009.0 |
| 20260506012945 | 42 | 359 | 5.0 | 6.0 | 0.00 | 0.00 | 0.00 | 63 | 1009.0 |
| 20260506012442 | 42 | 297 | 5.0 | 6.0 | 0.00 | 0.00 | 0.00 | 62 | 1009.1 |
| 20260506011939 | 42 | 318 | 6.0 | 7.0 | 0.00 | 0.00 | 0.00 | 62 | 1009.1 |
| 20260506011436 | 42 | 357 | 8.0 | 10.0 | 0.00 | 0.00 | 0.00 | 62 | 1008.8 |
| 20260506010933 | 42 | 4 | 6.0 | 8.0 | 0.00 | 0.00 | 0.00 | 61 | 1009.0 |
| 20260506010432 | 43 | 303 | 9.0 | 11.0 | 0.00 | 0.00 | 0.00 | 61 | 1009.2 |
| 20260506005928 | 43 | 316 | 6.0 | 9.0 | 0.00 | 0.00 | 0.00 | 61 | 1009.1 |
| 20260506005426 | 43 | 340 | 7.0 | 10.0 | 0.00 | 0.00 | 0.00 | 60 | 1009.2 |
| 20260506004921 | 43 | 309 | 4.0 | 7.0 | 0.00 | 0.00 | 0.00 | 60 | 1009.0 |
| 20260506004419 | 43 | 324 | 6.0 | 9.0 | 0.00 | 0.00 | 0.00 | 59 | 1009.4 |
| 20260506003915 | 43 | 337 | 5.0 | 7.0 | 0.00 | 0.00 | 0.00 | 59 | 1009.1 |
| 20260506003411 | 43 | 324 | 3.0 | 7.0 | 0.00 | 0.00 | 0.00 | 58 | 1009.3 |
| 20260506002908 | 44 | 326 | 7.0 | 9.0 | 0.00 | 0.00 | 0.00 | 57 | 1009.2 |
| 20260506002404 | 44 | 324 | 5.0 | 8.0 | 0.00 | 0.00 | 0.00 | 56 | 1009.2 |
| 20260506001859 | 44 | 341 | 4.0 | 5.0 | 0.00 | 0.00 | 0.00 | 55 | 1009.2 |
| 20260506001356 | 44 | 354 | 4.0 | 5.0 | 0.00 | 0.00 | 0.00 | 55 | 1009.1 |
| 20260506000854 | 44 | 339 | 5.0 | 7.0 | 0.00 | 0.00 | 0.00 | 54 | 1009.1 |
| 20260506000354 | 44 | 328 | 3.0 | 6.0 | 0.00 | 0.00 | 0.00 | 53 | 1009.1 |
| 20260505235848 | 44 | 356 | 5.0 | 6.0 | 0.00 | 0.00 | 0.00 | 53 | 1009.2 |
| 20260505235346 | 44 | 351 | 7.0 | 9.0 | 0.00 | 0.00 | 0.00 | 52 | 1009.1 |
| 20260505234842 | 45 | 333 | 4.0 | 6.0 | 0.00 | 0.00 | 0.00 | 52 | 1009.0 |
| 20260505234340 | 45 | 357 | 5.0 | 7.0 | 0.00 | 0.00 | 0.00 | 51 | 1009.1 |
| 20260505233837 | 45 | 343 | 4.0 | 5.0 | 0.00 | 0.00 | 0.00 | 51 | 1009.2 |
| 20260505233335 | 45 | 343 | 4.0 | 5.0 | 0.00 | 0.00 | 0.00 | 50 | 1009.0 |
| 20260505232832 | 45 | 309 | 2.0 | 3.0 | 0.00 | 0.00 | 0.00 | 51 | 1009.0 |
| 20260505232330 | 45 | 327 | 3.0 | 5.0 | 0.00 | 0.00 | 0.00 | 50 | 1009.3 |
| 20260505231826 | 45 | 343 | 4.0 | 6.0 | 0.00 | 0.00 | 0.00 | 49 | 1009.3 |
| 20260505231324 | 44 | 333 | 2.0 | 2.0 | 0.00 | 0.00 | 0.00 | 50 | 1009.3 |
| 20260505230822 | 44 | 340 | 3.0 | 3.0 | 0.00 | 0.00 | 0.00 | 49 | 1009.2 |
| 20260505230319 | 43 | 339 | 3.0 | 3.0 | 0.00 | 0.00 | 0.00 | 50 | 1009.4 |
| 20260505225815 | 42 | 323 | 1.0 | 1.0 | 0.00 | 0.00 | 0.00 | 50 | 1009.4 |
| 20260505225313 | 42 | 326 | 0.0 | 0.0 | 0.00 | 0.00 | 0.00 | 52 | 1009.3 |
| 20260505224808 | 42 | 327 | 0.0 | 1.0 | 0.00 | 0.00 | 0.00 | 50 | 1009.3 |
| 20260505224306 | 43 | 328 | 0.0 | 0.0 | 0.00 | 0.00 | 0.00 | 49 | 1009.2 |
| 20260505223803 | 43 | 319 | 0.0 | 1.0 | 0.00 | 0.00 | 0.00 | 47 | 1009.2 |
| 20260505223300 | 42 | 324 | 0.0 | 0.0 | 0.00 | 0.00 | 0.00 | 51 | 1009.3 |
| 20260505222755 | 43 | 333 | 0.0 | 0.0 | 0.00 | 0.00 | 0.00 | 48 | 1009.2 |
| 20260505222251 | 43 | 326 | 0.0 | 0.0 | 0.00 | 0.00 | 0.00 | 45 | 1009.7 |
| 20260505221749 | 42 | 320 | 0.0 | 0.0 | 0.00 | 0.00 | 0.00 | 46 | 1009.4 |
| 20260505221245 | 43 | 326 | 0.0 | 0.0 | 0.00 | 0.00 | 0.00 | 46 | 1009.3 |
| 20260505220742 | 44 | 330 | 0.0 | 1.0 | 0.00 | 0.00 | 0.00 | 45 | 1009.3 |
| 20260505220239 | 43 | 317 | 3.0 | 3.0 | 0.00 | 0.00 | 0.00 | 46 | 1009.4 |
| 20260505215738 | 44 | 328 | 0.0 | 1.0 | 0.00 | 0.00 | 0.00 | 46 | 1009.5 |
| 20260505215235 | 43 | 333 | 1.0 | 1.0 | 0.00 | 0.00 | 0.00 | 46 | 1009.3 |
| 20260505214733 | 43 | 327 | 0.0 | 1.0 | 0.00 | 0.00 | 0.00 | 48 | 1009.5 |
| 20260505214230 | 43 | 307 | 1.0 | 1.0 | 0.00 | 0.00 | 0.00 | 45 | 1009.5 |
| 20260505213727 | 44 | 295 | 1.0 | 1.0 | 0.00 | 0.00 | 0.00 | 46 | 1009.5 |
| 20260505213224 | 44 | 326 | 0.0 | 0.0 | 0.00 | 0.00 | 0.00 | 47 | 1009.5 |
| 20260505212720 | 44 | 324 | 1.0 | 1.0 | 0.00 | 0.00 | 0.00 | 45 | 1009.7 |
| 20260505212218 | 44 | 327 | 0.0 | 0.0 | 0.00 | 0.00 | 0.00 | 42 | 1009.5 |
| 20260505211715 | 45 | 327 | 0.0 | 0.0 | 0.00 | 0.00 | 0.00 | 43 | 1009.4 |
| 20260505211212 | 45 | 324 | 1.0 | 1.0 | 0.00 | 0.00 | 0.00 | 43 | 1009.9 |
| 20260505210708 | 45 | 326 | 0.0 | 0.0 | 0.00 | 0.00 | 0.00 | 43 | 1009.7 |
| 20260505210205 | 45 | 335 | 1.0 | 1.0 | 0.00 | 0.00 | 0.00 | 43 | 1009.7 |
| 20260505205703 | 45 | 333 | 0.0 | 0.0 | 0.00 | 0.00 | 0.00 | 44 | 1009.5 |
| 20260505205201 | 46 | 327 | 0.0 | 0.0 | 0.00 | 0.00 | 0.00 | 43 | 1009.5 |
| 20260505204657 | 45 | 328 | 0.0 | 0.0 | 0.00 | 0.00 | 0.00 | 44 | 1009.4 |
| 20260505204155 | 45 | 327 | 0.0 | 1.0 | 0.00 | 0.00 | 0.00 | 44 | 1009.5 |
| 20260505203652 | 44 | 329 | 0.0 | 1.0 | 0.00 | 0.00 | 0.00 | 45 | 1009.2 |
| 20260505203148 | 45 | 327 | 1.0 | 1.0 | 0.00 | 0.00 | 0.00 | 45 | 1009.4 |
| 20260505202644 | 46 | 328 | 0.0 | 1.0 | 0.00 | 0.00 | 0.00 | 44 | 1009.5 |
| 20260505202140 | 46 | 326 | 1.0 | 1.0 | 0.00 | 0.00 | 0.00 | 43 | 1009.3 |
| 20260505201637 | 46 | 327 | 1.0 | 2.0 | 0.00 | 0.00 | 0.00 | 42 | 1009.5 |
| 20260505201135 | 46 | 307 | 1.0 | 2.0 | 0.00 | 0.00 | 0.00 | 41 | 1009.4 |
| 20260505200633 | 46 | 327 | 0.0 | 0.0 | 0.00 | 0.00 | 0.00 | 42 | 1009.7 |
| 20260505200130 | 46 | 327 | 0.0 | 0.0 | 0.00 | 0.00 | 0.00 | 41 | 1009.4 |
| 20260505195625 | 45 | 346 | 2.0 | 2.0 | 0.00 | 0.00 | 0.00 | 43 | 1009.3 |
| 20260505195123 | 46 | 327 | 1.0 | 2.0 | 0.00 | 0.00 | 0.00 | 42 | 1009.4 |
| 20260505194614 | 46 | 326 | 0.0 | 0.0 | 0.00 | 0.00 | 0.00 | 42 | 1009.4 |
| 20260505194110 | 46 | 325 | 0.0 | 0.0 | 0.00 | 0.00 | 0.00 | 42 | 1009.2 |
| 20260505193607 | 47 | 335 | 1.0 | 1.0 | 0.00 | 0.00 | 0.00 | 41 | 1009.2 |
| 20260505193104 | 47 | 305 | 0.0 | 1.0 | 0.00 | 0.00 | 0.00 | 41 | 1009.3 |
| 20260505192603 | 47 | 321 | 1.0 | 1.0 | 0.00 | 0.00 | 0.00 | 40 | 1009.2 |
| 20260505192100 | 47 | 325 | 0.0 | 0.0 | 0.00 | 0.00 | 0.00 | 41 | 1009.2 |
| 20260505191558 | 47 | 323 | 0.0 | 1.0 | 0.00 | 0.00 | 0.00 | 41 | 1009.2 |
| 20260505191056 | 47 | 319 | 0.0 | 1.0 | 0.00 | 0.00 | 0.00 | 42 | 1009.3 |
| 20260505190550 | 46 | 320 | 0.0 | 1.0 | 0.00 | 0.00 | 0.00 | 43 | 1009.2 |
| 20260505190046 | 47 | 325 | 0.0 | 0.0 | 0.00 | 0.00 | 0.00 | 43 | 1009.1 |
| 20260505185543 | 48 | 335 | 0.0 | 0.0 | 0.00 | 0.00 | 0.00 | 41 | 1009.2 |
| 20260505185040 | 48 | 310 | 0.0 | 0.0 | 0.00 | 0.00 | 0.00 | 39 | 1009.0 |
| 20260505184537 | 48 | 322 | 1.0 | 1.0 | 0.00 | 0.00 | 0.00 | 39 | 1009.2 |
| 20260505184033 | 48 | 302 | 1.0 | 1.0 | 0.00 | 0.00 | 0.00 | 39 | 1009.0 |
| 20260505183530 | 49 | 322 | 0.0 | 0.0 | 0.00 | 0.00 | 0.00 | 38 | 1009.2 |
| 20260505183028 | 49 | 324 | 0.0 | 0.0 | 0.00 | 0.00 | 0.00 | 39 | 1009.1 |
| 20260505182524 | 49 | 332 | 1.0 | 1.0 | 0.00 | 0.00 | 0.00 | 38 | 1009.1 |
| 20260505182020 | 49 | 334 | 0.0 | 0.0 | 0.00 | 0.00 | 0.00 | 38 | 1009.0 |
| 20260505181517 | 50 | 323 | 1.0 | 1.0 | 0.00 | 0.00 | 0.00 | 37 | 1009.2 |
| 20260505181015 | 50 | 333 | 0.0 | 0.0 | 0.00 | 0.00 | 0.00 | 36 | 1009.0 |
| 20260505180510 | 50 | 341 | 2.0 | 2.0 | 0.00 | 0.00 | 0.00 | 35 | 1009.0 |
| 20260505180008 | 51 | 359 | 1.0 | 1.0 | 0.00 | 0.00 | 0.00 | 35 | 1008.8 |
| 20260505175502 | 51 | 19 | 3.0 | 5.0 | 0.00 | 0.00 | 0.00 | 34 | 1008.8 |
| 20260505174959 | 51 | 355 | 2.0 | 2.0 | 0.00 | 0.00 | 0.00 | 33 | 1008.7 |
| 20260505174451 | 52 | 31 | 2.0 | 2.0 | 0.00 | 0.00 | 0.00 | 32 | 1008.8 |
| 20260505173947 | 52 | 354 | 2.0 | 2.0 | 0.00 | 0.00 | 0.00 | 31 | 1008.7 |
| 20260505173444 | 52 | 313 | 2.0 | 3.0 | 0.00 | 0.00 | 0.00 | 30 | 1008.6 |
| 20260505172941 | 52 | 326 | 2.0 | 2.0 | 0.00 | 0.00 | 0.00 | 30 | 1008.5 |
| 20260505172439 | 53 | 343 | 1.0 | 2.0 | 0.00 | 0.00 | 0.00 | 29 | 1008.5 |
| 20260505171938 | 53 | 333 | 1.0 | 1.0 | 0.00 | 0.00 | 0.00 | 29 | 1008.4 |
| 20260505171436 | 53 | 323 | 2.0 | 2.0 | 0.00 | 0.00 | 0.00 | 28 | 1008.4 |
| 20260505170932 | 54 | 326 | 1.0 | 1.0 | 0.00 | 0.00 | 0.00 | 27 | 1008.3 |
| 20260505170429 | 54 | 356 | 3.0 | 3.0 | 0.00 | 0.00 | 0.00 | 26 | 1008.3 |
| 20260505165924 | 54 | 347 | 2.0 | 2.0 | 0.00 | 0.00 | 0.00 | 26 | 1008.4 |
| 20260505165420 | 54 | 335 | 1.0 | 2.0 | 0.00 | 0.00 | 0.00 | 25 | 1008.3 |
| 20260505164915 | 55 | 323 | 2.0 | 2.0 | 0.00 | 0.00 | 0.00 | 25 | 1008.4 |
| 20260505164407 | 55 | 341 | 2.0 | 3.0 | 0.00 | 0.00 | 0.00 | 24 | 1008.3 |
| 20260505163905 | 55 | 347 | 3.0 | 3.0 | 0.00 | 0.00 | 0.00 | 24 | 1008.1 |
| 20260505163404 | 56 | 20 | 2.0 | 3.0 | 0.00 | 0.00 | 0.00 | 23 | 1008.0 |
| 20260505162902 | 56 | 8 | 3.0 | 3.0 | 0.00 | 0.00 | 0.00 | 22 | 1008.1 |
| 20260505162357 | 57 | 347 | 2.0 | 2.0 | 0.00 | 0.00 | 0.00 | 22 | 1007.9 |
| 20260505161855 | 58 | 329 | 4.0 | 6.0 | 0.00 | 0.00 | 0.00 | 21 | 1008.0 |
| 20260505161351 | 59 | 340 | 2.0 | 2.0 | 0.00 | 0.00 | 0.00 | 22 | 1008.3 |
| 20260505160849 | 60 | 351 | 3.0 | 5.0 | 0.00 | 0.00 | 0.00 | 20 | 1007.7 |
| 20260505160347 | 60 | 10 | 1.0 | 2.0 | 0.00 | 0.00 | 0.00 | 21 | 1007.8 |
| 20260505153326 | 62 | 58 | 2.0 | 3.0 | 0.00 | 0.00 | 0.00 | 17 | 1007.7 |
| 20260505152823 | 62 | 71 | 3.0 | 5.0 | 0.00 | 0.00 | 0.00 | 16 | 1007.4 |
| 20260505152320 | 62 | 93 | 6.0 | 7.0 | 0.00 | 0.00 | 0.00 | 14 | 1007.7 |
| 20260505151820 | 63 | 42 | 7.0 | 10.0 | 0.00 | 0.00 | 0.00 | 13 | 1007.5 |
| 20260505151316 | 63 | 334 | 4.0 | 6.0 | 0.00 | 0.00 | 0.00 | 16 | 1007.4 |
| 20260505150813 | 63 | 135 | 4.0 | 7.0 | 0.00 | 0.00 | 0.00 | 16 | 1007.7 |
| 20260505150310 | 64 | 303 | 1.0 | 2.0 | 0.00 | 0.00 | 0.00 | 17 | 1007.5 |
| 20260505140235 | 64 | 6 | 7.0 | 10.0 | 0.00 | 0.00 | 0.00 | 14 | 1007.4 |
| 20260505130159 | 66 | 32 | 4.0 | 7.0 | 0.00 | 0.00 | 0.00 | 16 | 1007.5 |
| 20260505124649 | 64 | 63 | 5.0 | 8.0 | 0.00 | 0.00 | 0.00 | 15 | 1007.5 |
| 20260505124145 | 65 | 346 | 5.0 | 8.0 | 0.00 | 0.00 | 0.00 | 15 | 1007.8 |
| 20260505123641 | 64 | 318 | 4.0 | 6.0 | 0.00 | 0.00 | 0.00 | 15 | 1007.9 |
| 20260505123138 | 64 | 49 | 7.0 | 8.0 | 0.00 | 0.00 | 0.00 | 14 | 1008.0 |
| 20260505122635 | 65 | 293 | 5.0 | 9.0 | 0.00 | 0.00 | 0.00 | 13 | 1008.0 |
| 20260505122132 | 65 | 287 | 5.0 | 7.0 | 0.00 | 0.00 | 0.00 | 16 | 1008.0 |
| 20260505121629 | 65 | 318 | 2.0 | 2.0 | 0.00 | 0.00 | 0.00 | 17 | 1007.9 |
| 20260505121126 | 64 | 10 | 3.0 | 5.0 | 0.00 | 0.00 | 0.00 | 16 | 1008.3 |
| 20260505120621 | 64 | 345 | 5.0 | 6.0 | 0.00 | 0.00 | 0.00 | 15 | 1008.1 |
| 20260505120117 | 65 | 320 | 6.0 | 8.0 | 0.00 | 0.00 | 0.00 | 15 | 1008.3 |
| 20260505115612 | 64 | 322 | 3.0 | 3.0 | 0.00 | 0.00 | 0.00 | 16 | 1008.4 |
| 20260505115109 | 64 | 95 | 7.0 | 9.0 | 0.00 | 0.00 | 0.00 | 15 | 1008.3 |
| 20260505114601 | 64 | 359 | 6.0 | 9.0 | 0.00 | 0.00 | 0.00 | 16 | 1008.3 |
| 20260505114057 | 64 | 318 | 6.0 | 7.0 | 0.00 | 0.00 | 0.00 | 15 | 1008.5 |
| 20260505113553 | 64 | 329 | 2.0 | 3.0 | 0.00 | 0.00 | 0.00 | 17 | 1008.6 |
| 20260505113050 | 64 | 350 | 3.0 | 6.0 | 0.00 | 0.00 | 0.00 | 17 | 1008.7 |
| 20260505112546 | 64 | 20 | 3.0 | 3.0 | 0.00 | 0.00 | 0.00 | 19 | 1008.8 |
| 20260505112044 | 63 | 342 | 4.0 | 7.0 | 0.00 | 0.00 | 0.00 | 19 | 1008.7 |
| 20260505111538 | 63 | 307 | 8.0 | 10.0 | 0.00 | 0.00 | 0.00 | 20 | 1008.8 |
| 20260505111035 | 64 | 6 | 5.0 | 8.0 | 0.00 | 0.00 | 0.00 | 19 | 1008.8 |
| 20260505110531 | 64 | 358 | 4.0 | 6.0 | 0.00 | 0.00 | 0.00 | 20 | 1009.0 |
| 20260505102004 | 62 | 47 | 8.0 | 13.0 | 0.00 | 0.00 | 0.00 | 21 | 1009.3 |
| 20260505101501 | 62 | 303 | 5.0 | 7.0 | 0.00 | 0.00 | 0.00 | 20 | 1009.7 |
| 20260505100958 | 62 | 48 | 6.0 | 8.0 | 0.00 | 0.00 | 0.00 | 20 | 1009.5 |
| 20260505100455 | 63 | 314 | 7.0 | 10.0 | 0.00 | 0.00 | 0.00 | 21 | 1009.5 |
| 20260505095951 | 61 | 351 | 3.0 | 5.0 | 0.00 | 0.00 | 0.00 | 24 | 1009.5 |
| 20260505095448 | 60 | 21 | 3.0 | 6.0 | 0.00 | 0.00 | 0.00 | 22 | 1009.9 |
| 20260505094944 | 61 | 30 | 7.0 | 9.0 | 0.00 | 0.00 | 0.00 | 21 | 1009.8 |
| 20260505094441 | 60 | 342 | 4.0 | 6.0 | 0.00 | 0.00 | 0.00 | 22 | 1009.8 |
| 20260505093937 | 60 | 41 | 3.0 | 3.0 | 0.00 | 0.00 | 0.00 | 23 | 1009.9 |
| 20260505093434 | 60 | 359 | 4.0 | 6.0 | 0.00 | 0.00 | 0.00 | 22 | 1009.9 |
| 20260505092931 | 60 | 99 | 3.0 | 5.0 | 0.00 | 0.00 | 0.00 | 23 | 1010.1 |
| 20260505092429 | 60 | 24 | 5.0 | 8.0 | 0.00 | 0.00 | 0.00 | 24 | 1010.0 |
| 20260505091926 | 60 | 3 | 3.0 | 5.0 | 0.00 | 0.00 | 0.00 | 23 | 1010.0 |
| 20260505091423 | 60 | 6 | 5.0 | 7.0 | 0.00 | 0.00 | 0.00 | 23 | 1010.0 |
| 20260505090921 | 59 | 39 | 5.0 | 6.0 | 0.00 | 0.00 | 0.00 | 22 | 1010.1 |
| 20260505090419 | 59 | 28 | 4.0 | 6.0 | 0.00 | 0.00 | 0.00 | 25 | 1010.0 |
| 20260505085917 | 59 | 328 | 3.0 | 5.0 | 0.00 | 0.00 | 0.00 | 26 | 1010.1 |
| 20260505085414 | 59 | 9 | 5.0 | 7.0 | 0.00 | 0.00 | 0.00 | 26 | 1010.2 |
| 20260505084912 | 58 | 322 | 1.0 | 3.0 | 0.00 | 0.00 | 0.00 | 26 | 1010.2 |
| 20260505084410 | 58 | 342 | 2.0 | 3.0 | 0.00 | 0.00 | 0.00 | 27 | 1010.4 |
| 20260505083908 | 58 | 324 | 1.0 | 1.0 | 0.00 | 0.00 | 0.00 | 28 | 1010.4 |
| 20260505083405 | 57 | 353 | 3.0 | 3.0 | 0.00 | 0.00 | 0.00 | 29 | 1010.4 |
| 20260505082901 | 57 | 313 | 3.0 | 3.0 | 0.00 | 0.00 | 0.00 | 29 | 1010.4 |
| 20260505082357 | 56 | 341 | 4.0 | 6.0 | 0.00 | 0.00 | 0.00 | 28 | 1010.4 |
| 20260505081854 | 57 | 358 | 4.0 | 7.0 | 0.00 | 0.00 | 0.00 | 31 | 1010.1 |
| 20260505081351 | 57 | 359 | 4.0 | 5.0 | 0.00 | 0.00 | 0.00 | 32 | 1010.4 |
| 20260505080848 | 57 | 301 | 3.0 | 5.0 | 0.00 | 0.00 | 0.00 | 32 | 1010.2 |
| 20260505080344 | 57 | 357 | 3.0 | 5.0 | 0.00 | 0.00 | 0.00 | 32 | 1010.4 |
| 20260505075839 | 57 | 20 | 3.0 | 5.0 | 0.00 | 0.00 | 0.00 | 30 | 1010.0 |
| 20260505075337 | 57 | 75 | 5.0 | 7.0 | 0.00 | 0.00 | 0.00 | 28 | 1010.0 |
| 20260505074834 | 56 | 6 | 7.0 | 10.0 | 0.00 | 0.00 | 0.00 | 30 | 1010.1 |
| 20260505074331 | 56 | 59 | 4.0 | 7.0 | 0.00 | 0.00 | 0.00 | 29 | 1009.8 |
| 20260505073828 | 56 | 42 | 3.0 | 6.0 | 0.00 | 0.00 | 0.00 | 32 | 1009.9 |
| 20260505073326 | 56 | 3 | 3.0 | 3.0 | 0.00 | 0.00 | 0.00 | 33 | 1009.8 |
| 20260505072823 | 55 | 38 | 3.0 | 3.0 | 0.00 | 0.00 | 0.00 | 47 | 1009.7 |
| 20260505072319 | 54 | 7 | 3.0 | 5.0 | 0.00 | 0.00 | 0.00 | 51 | 1009.5 |
| 20260505071815 | 54 | 333 | 4.0 | 6.0 | 0.00 | 0.00 | 0.00 | 51 | 1009.3 |
| 20260505071312 | 54 | 36 | 2.0 | 2.0 | 0.00 | 0.00 | 0.00 | 51 | 1009.4 |
| 20260505070810 | 54 | 327 | 0.0 | 0.0 | 0.00 | 0.00 | 0.00 | 50 | 1009.2 |
| 20260505070306 | 54 | 335 | 1.0 | 2.0 | 0.00 | 0.00 | 0.00 | 47 | 1009.2 |
| 20260505065801 | 54 | 334 | 1.0 | 1.0 | 0.00 | 0.00 | 0.00 | 50 | 1009.2 |
| 20260505065258 | 53 | 325 | 1.0 | 2.0 | 0.00 | 0.00 | 0.00 | 56 | 1009.1 |
| 20260505064755 | 53 | 331 | 1.0 | 1.0 | 0.00 | 0.00 | 0.00 | 60 | 1009.2 |
| 20260505064252 | 52 | 326 | 0.0 | 0.0 | 0.00 | 0.00 | 0.00 | 61 | 1009.1 |
| 20260505063750 | 51 | 334 | 0.0 | 1.0 | 0.00 | 0.00 | 0.00 | 65 | 1009.2 |
| 20260505063246 | 51 | 314 | 0.0 | 1.0 | 0.00 | 0.00 | 0.00 | 67 | 1009.1 |
| 20260505062743 | 51 | 329 | 0.0 | 0.0 | 0.00 | 0.00 | 0.00 | 68 | 1008.8 |
| 20260505062240 | 50 | 323 | 0.0 | 0.0 | 0.00 | 0.00 | 0.00 | 69 | 1008.8 |
| 20260505061737 | 50 | 286 | 1.0 | 1.0 | 0.00 | 0.00 | 0.00 | 68 | 1008.7 |
| 20260505061235 | 50 | 325 | 0.0 | 0.0 | 0.00 | 0.00 | 0.00 | 70 | 1008.7 |
| 20260505060732 | 49 | 326 | 0.0 | 0.0 | 0.00 | 0.00 | 0.00 | 70 | 1008.8 |
| 20260505060229 | 48 | 324 | 0.0 | 0.0 | 0.00 | 0.00 | 0.00 | 71 | 1009.0 |
| 20260505055724 | 48 | 330 | 0.0 | 0.0 | 0.00 | 0.00 | 0.00 | 71 | 1008.7 |
| 20260505055221 | 47 | 326 | 0.0 | 0.0 | 0.00 | 0.00 | 0.00 | 73 | 1008.8 |
| 20260505054718 | 47 | 330 | 0.0 | 0.0 | 0.00 | 0.00 | 0.00 | 74 | 1008.7 |
| 20260505054216 | 46 | 328 | 0.0 | 0.0 | 0.00 | 0.00 | 0.00 | 75 | 1008.7 |
| 20260505053714 | 46 | 329 | 0.0 | 0.0 | 0.00 | 0.00 | 0.00 | 75 | 1008.6 |
| 20260505053210 | 46 | 323 | 0.0 | 0.0 | 0.00 | 0.00 | 0.00 | 75 | 1008.6 |
| 20260505052708 | 46 | 328 | 0.0 | 0.0 | 0.00 | 0.00 | 0.00 | 76 | 1008.4 |
| 20260505052204 | 46 | 326 | 0.0 | 0.0 | 0.00 | 0.00 | 0.00 | 76 | 1008.4 |
| 20260505051701 | 46 | 324 | 0.0 | 0.0 | 0.00 | 0.00 | 0.00 | 75 | 1008.4 |
| 20260505051159 | 46 | 327 | 0.0 | 0.0 | 0.00 | 0.00 | 0.00 | 75 | 1008.3 |
| 20260505050657 | 46 | 331 | 0.0 | 0.0 | 0.00 | 0.00 | 0.00 | 74 | 1008.4 |